This is the latest recevied weather packets stored in our database for station/object JE4YKI-13. If no packets are shown the sender has not sent any weather packets the latest 10 day(s).
| Time | Temp. | Humidity | Pressure | Rain* | Wind** | Luminosity | Snow |
|---|---|---|---|---|---|---|---|
| 1777807077 | 17.78° C | 97% | 1000.7 hPa | 1.02 mm | - | - | - |
| 1777806476 | 17.78° C | 98% | 1000.5 hPa | 0 mm | - | - | - |
| 1777805876 | 17.22° C | 98% | 1000.5 hPa | 0 mm | - | - | - |
| 1777805276 | 17.22° C | 97% | 1000.2 hPa | 1.27 mm | - | - | - |
| 1777804675 | 16.67° C | 97% | 1000.1 hPa | 1.27 mm | - | - | - |
| 1777804076 | 16.67° C | 97% | 1000.1 hPa | 1.52 mm | - | - | - |
| 1777803474 | 16.67° C | 97% | 1000.2 hPa | 2.54 mm | - | - | - |
| 1777802875 | 16.67° C | 97% | 1000 hPa | 3.3 mm | - | - | - |
| 1777802273 | 16.11° C | 97% | 999.9 hPa | 3.56 mm | - | - | - |
| 1777801673 | 16.11° C | 97% | 999.8 hPa | 5.08 mm | - | - | - |
| 1777801072 | 16.11° C | 97% | 999.9 hPa | 4.06 mm | - | - | - |
| 1777800472 | 15.56° C | 97% | 999.9 hPa | 3.81 mm | - | - | - |
| 1777799872 | 15.56° C | 97% | 999.9 hPa | 4.06 mm | - | - | - |
| 1777799272 | 15.56° C | 97% | 1000.1 hPa | 6.6 mm | - | - | - |
| 1777798671 | 15.56° C | 96% | 1000.1 hPa | 4.83 mm | - | - | - |
| 1777798071 | 15.56° C | 96% | 999.9 hPa | 7.37 mm | - | - | - |
| 1777797470 | 15.56° C | 96% | 1000 hPa | 5.33 mm | - | - | - |
| 1777796870 | 16.11° C | 96% | 1000 hPa | 3.81 mm | - | - | - |
| 1777796275 | 16.11° C | 96% | 999.9 hPa | 6.86 mm | - | - | - |
| 1777795669 | 16.67° C | 96% | 1000.2 hPa | 8.64 mm | - | - | - |
| 1777795069 | 16.67° C | 97% | 1000.1 hPa | 6.1 mm | - | - | - |
| 1777794469 | 16.67° C | 98% | 1000.4 hPa | 11.18 mm | - | - | - |
| 1777793267 | 15° C | 97% | 1000.4 hPa | 29.72 mm | - | - | - |
| 1777792667 | 15° C | 96% | 1000.4 hPa | 6.6 mm | - | - | - |
| 1777792067 | 15° C | 97% | 1000.3 hPa | 9.91 mm | - | - | - |
* Rain latest hour (hover to see other rain measurements)
** Current wind speed in m/s (hover to see current wind gust speed)